CES2376 ZLGM-ZLXY

Flight info

Callsign CES2376
Flight time 1h 49m
Altitude 37100
Route GRM H15 XNN W111 BIGUX W214 HO
Aircraft A319/M-SDE3FGHIRWY/LB1

Departure

Time 2026-04-29 14:37
Airport Golmud Airport (ZLGM)

Arrival

Time 2026-04-29 16:26
Airport Xi'an Xianyang International Airport (ZLXY)
Time Latitude Longitude Altitude Speed Heading
2026-04-29 14:22 36.40296 94.78951 9359 ft 0 kts 359°
2026-04-29 14:25 36.40281 94.78951 9356 ft 2 kts 24°
2026-04-29 14:26 36.40272 94.78944 9358 ft 2 kts 83°
2026-04-29 14:26 36.40271 94.78930 9357 ft 2 kts 86°
2026-04-29 14:26 36.40271 94.78916 9358 ft 2 kts 88°
2026-04-29 14:26 36.40271 94.78911 9356 ft 0 kts 89°
2026-04-29 14:27 36.40271 94.78910 9356 ft 1 kts 89°
2026-04-29 14:27 36.40270 94.78896 9354 ft 2 kts 89°
2026-04-29 14:27 36.40270 94.78877 9354 ft 3 kts 88°
2026-04-29 14:28 36.40269 94.78851 9356 ft 1 kts 89°
2026-04-29 14:28 36.40269 94.78844 9356 ft 1 kts 89°
2026-04-29 14:28 36.40269 94.78845 9356 ft 0 kts 89°
2026-04-29 14:30 36.40255 94.78863 9354 ft 7 kts 168°
2026-04-29 14:30 36.40182 94.78855 9358 ft 10 kts 180°
2026-04-29 14:31 36.40102 94.78856 9357 ft 10 kts 180°
2026-04-29 14:31 36.40039 94.78856 9358 ft 10 kts 177°
2026-04-29 14:31 36.40005 94.78894 9356 ft 10 kts 87°
2026-04-29 14:31 36.40007 94.78984 9356 ft 20 kts 90°
2026-04-29 14:32 36.40008 94.79193 9360 ft 22 kts 89°
2026-04-29 14:32 36.40010 94.79404 9357 ft 14 kts 89°
2026-04-29 14:32 36.40011 94.79509 9357 ft 21 kts 89°
2026-04-29 14:32 36.40013 94.79711 9358 ft 26 kts 89°
2026-04-29 14:33 36.40015 94.79947 9358 ft 24 kts 89°
2026-04-29 14:33 36.40017 94.80145 9360 ft 17 kts 89°
2026-04-29 14:33 36.40018 94.80321 9361 ft 24 kts 89°
2026-04-29 14:33 36.40020 94.80525 9365 ft 24 kts 89°
2026-04-29 14:34 36.40022 94.80755 9367 ft 28 kts 89°
2026-04-29 14:34 36.40024 94.80991 9366 ft 21 kts 89°
2026-04-29 14:34 36.40026 94.81159 9366 ft 20 kts 90°
2026-04-29 14:34 36.40042 94.81254 9365 ft 7 kts 64°
2026-04-29 14:35 36.40030 94.81279 9362 ft 4 kts 211°
2026-04-29 14:35 36.40027 94.81255 9364 ft 0 kts 267°
2026-04-29 14:36 36.40027 94.81245 9365 ft 7 kts 269°
2026-04-29 14:36 36.40026 94.81075 9366 ft 44 kts 269°
2026-04-29 14:36 36.40020 94.80426 9363 ft 105 kts 269°
2026-04-29 14:37 36.40010 94.79298 9359 ft 155 kts 269°
2026-04-29 14:37 36.39995 94.77788 9387 ft 196 kts 269°
2026-04-29 14:37 36.39982 94.76108 9942 ft 193 kts 270°
2026-04-29 14:37 36.39969 94.74433 10415 ft 195 kts 269°
2026-04-29 14:38 36.39949 94.72724 10771 ft 205 kts 269°
2026-04-29 14:38 36.39928 94.70873 10901 ft 224 kts 269°
2026-04-29 14:38 36.39905 94.68849 11027 ft 246 kts 269°
2026-04-29 14:38 36.39878 94.66626 11194 ft 269 kts 269°
2026-04-29 14:39 36.39848 94.64205 11393 ft 292 kts 269°
2026-04-29 14:39 36.39820 94.61586 11564 ft 315 kts 269°
2026-04-29 14:39 36.39789 94.58768 11702 ft 338 kts 269°
2026-04-29 14:39 36.39756 94.55792 12090 ft 349 kts 270°
2026-04-29 14:40 36.40176 94.52830 12635 ft 353 kts 294°
2026-04-29 14:40 36.41618 94.50392 13225 ft 354 kts 321°
2026-04-29 14:40 36.43792 94.49019 13794 ft 354 kts 348°
2026-04-29 14:40 36.46234 94.49004 14329 ft 355 kts 14°
2026-04-29 14:41 36.48432 94.50357 14856 ft 357 kts 41°
2026-04-29 14:41 36.49924 94.52801 15365 ft 360 kts 67°
2026-04-29 14:41 36.50396 94.55846 15886 ft 364 kts 93°
2026-04-29 14:41 36.49945 94.58954 16423 ft 367 kts 102°
2026-04-29 14:42 36.49636 94.62117 16955 ft 371 kts 92°
2026-04-29 14:42 36.49666 94.65344 17519 ft 375 kts 87°
2026-04-29 14:42 36.49843 94.68592 18060 ft 379 kts 86°
2026-04-29 14:42 36.50040 94.71869 18539 ft 382 kts 86°
2026-04-29 14:43 36.50188 94.75180 19033 ft 385 kts 88°
2026-04-29 14:43 36.50270 94.78524 19508 ft 389 kts 89°
2026-04-29 14:43 36.50295 94.81910 19979 ft 394 kts 90°
2026-04-29 14:43 36.50286 94.85328 20461 ft 398 kts 91°
2026-04-29 14:44 36.50265 94.88791 20959 ft 403 kts 91°
2026-04-29 14:44 36.50245 94.92286 21456 ft 407 kts 91°
2026-04-29 14:44 36.50229 94.95824 21956 ft 411 kts 91°
2026-04-29 14:44 36.50220 94.99391 22450 ft 416 kts 91°
2026-04-29 14:45 36.50218 95.02958 22942 ft 420 kts 90°
2026-04-29 14:45 36.50249 95.06654 23406 ft 425 kts 86°
2026-04-29 14:45 36.50643 95.10259 23796 ft 429 kts 77°
2026-04-29 14:45 36.51495 95.13822 24186 ft 431 kts 69°
2026-04-29 14:46 36.52530 95.17340 24580 ft 435 kts 68°
2026-04-29 14:46 36.53564 95.20886 24976 ft 439 kts 68°
2026-04-29 14:46 36.54605 95.24474 25371 ft 442 kts 68°
2026-04-29 14:46 36.55646 95.28085 25760 ft 446 kts 68°
2026-04-29 14:47 36.56694 95.31732 26142 ft 449 kts 68°
2026-04-29 14:47 36.57747 95.35401 26524 ft 452 kts 67°
2026-04-29 14:47 36.58811 95.39099 26898 ft 456 kts 67°
2026-04-29 14:47 36.59885 95.42823 27265 ft 459 kts 67°
2026-04-29 14:48 36.60967 95.46572 27634 ft 462 kts 66°
2026-04-29 14:48 36.62058 95.50356 28012 ft 466 kts 66°
2026-04-29 14:48 36.63151 95.54168 28380 ft 469 kts 66°
2026-04-29 14:48 36.64249 95.58016 28729 ft 473 kts 66°
2026-04-29 14:49 36.65356 95.61896 29091 ft 477 kts 66°
2026-04-29 14:49 36.66468 95.65799 29450 ft 480 kts 66°
2026-04-29 14:49 36.67588 95.69730 29795 ft 484 kts 66°
2026-04-29 14:49 36.68701 95.73636 30078 ft 487 kts 66°
2026-04-29 14:50 36.69834 95.77634 30381 ft 490 kts 66°
2026-04-29 14:50 36.70968 95.81643 30684 ft 492 kts 66°
2026-04-29 14:50 36.72109 95.85674 30977 ft 495 kts 66°
2026-04-29 14:50 36.73259 95.89737 31268 ft 497 kts 66°
2026-04-29 14:51 36.74408 95.93801 31647 ft 497 kts 66°
2026-04-29 14:51 36.75554 95.97871 32080 ft 496 kts 66°
2026-04-29 14:51 36.76695 96.01927 32509 ft 496 kts 66°
2026-04-29 14:51 36.77839 96.05992 32944 ft 495 kts 66°
2026-04-29 14:52 36.78989 96.10031 33380 ft 494 kts 65°
2026-04-29 14:52 36.80160 96.14060 33801 ft 493 kts 65°
2026-04-29 14:52 36.81341 96.18077 34163 ft 493 kts 65°
2026-04-29 14:52 36.82526 96.22095 34498 ft 494 kts 65°
2026-04-29 14:53 36.83711 96.26128 34814 ft 495 kts 65°
2026-04-29 14:53 36.84888 96.30157 35131 ft 495 kts 65°
2026-04-29 14:53 36.86065 96.34207 35445 ft 496 kts 65°
2026-04-29 14:53 36.87239 96.38263 35754 ft 497 kts 65°
2026-04-29 14:54 36.88411 96.42322 36059 ft 497 kts 65°
2026-04-29 14:54 36.89584 96.46389 36355 ft 498 kts 65°
2026-04-29 14:54 36.90755 96.50463 36655 ft 499 kts 65°
2026-04-29 14:54 36.91916 96.54500 36811 ft 500 kts 65°
2026-04-29 14:55 36.93107 96.58639 36833 ft 500 kts 65°
2026-04-29 14:55 36.95436 96.66758 36834 ft 499 kts 65°
2026-04-29 14:56 36.97775 96.74932 36835 ft 499 kts 65°
2026-04-29 14:56 37.00108 96.83108 36838 ft 499 kts 65°
2026-04-29 14:57 37.02430 96.91282 36843 ft 498 kts 65°
2026-04-29 14:57 37.04748 96.99465 36846 ft 498 kts 65°
2026-04-29 14:58 37.07055 97.07646 36853 ft 498 kts 65°
2026-04-29 14:58 37.09360 97.15832 36864 ft 498 kts 65°
2026-04-29 14:59 37.11659 97.24013 36871 ft 498 kts 65°
2026-04-29 14:59 37.14561 97.31753 36880 ft 484 kts 49°
2026-04-29 15:00 37.18532 97.38481 36893 ft 479 kts 45°
2026-04-29 15:00 37.22496 97.45128 36911 ft 479 kts 46°
2026-04-29 15:01 37.26474 97.51837 36923 ft 479 kts 46°
2026-04-29 15:01 37.30448 97.58544 36941 ft 478 kts 46°
2026-04-29 15:02 37.33837 97.65804 36950 ft 493 kts 66°
2026-04-29 15:02 37.34658 97.70019 36958 ft 501 kts 79°
2026-04-29 15:02 37.34759 97.74418 36961 ft 507 kts 93°
2026-04-29 15:02 37.34125 97.78769 36958 ft 508 kts 107°
2026-04-29 15:03 37.32785 97.82871 36953 ft 507 kts 119°
2026-04-29 15:03 37.29519 97.90728 36948 ft 508 kts 119°
2026-04-29 15:04 37.26219 97.98578 36946 ft 508 kts 119°
2026-04-29 15:04 37.22946 98.06379 36946 ft 508 kts 118°
2026-04-29 15:05 37.19654 98.14238 36953 ft 509 kts 119°
2026-04-29 15:05 37.16353 98.22082 36957 ft 509 kts 118°
2026-04-29 15:06 37.13045 98.29927 36961 ft 509 kts 118°
2026-04-29 15:06 37.09737 98.37768 36969 ft 509 kts 118°
2026-04-29 15:07 37.06428 98.45591 36967 ft 509 kts 118°
2026-04-29 15:07 37.03097 98.53414 36971 ft 509 kts 119°
2026-04-29 15:08 36.99751 98.61234 36973 ft 510 kts 119°
2026-04-29 15:08 36.96412 98.69056 36973 ft 510 kts 119°
2026-04-29 15:09 36.93072 98.76877 36974 ft 510 kts 119°
2026-04-29 15:09 36.89713 98.84695 36984 ft 511 kts 119°
2026-04-29 15:10 36.86355 98.92510 36976 ft 510 kts 119°
2026-04-29 15:10 36.82997 99.00311 36971 ft 511 kts 119°
2026-04-29 15:11 36.79690 99.08167 36969 ft 511 kts 113°
2026-04-29 15:11 36.77750 99.16640 36966 ft 507 kts 94°
2026-04-29 15:12 36.77048 99.25359 36973 ft 506 kts 92°
2026-04-29 15:12 36.76331 99.34093 36978 ft 507 kts 92°
2026-04-29 15:13 36.75589 99.42829 36982 ft 507 kts 92°
2026-04-29 15:13 36.74854 99.51568 36995 ft 507 kts 92°
2026-04-29 15:14 36.74125 99.60307 37004 ft 506 kts 92°
2026-04-29 15:14 36.73390 99.69024 37006 ft 505 kts 92°
2026-04-29 15:15 36.72645 99.77739 37004 ft 505 kts 92°
2026-04-29 15:15 36.71898 99.86449 37008 ft 506 kts 92°
2026-04-29 15:16 36.71145 99.95161 37009 ft 506 kts 92°
2026-04-29 15:16 36.70380 100.03874 37010 ft 506 kts 92°
2026-04-29 15:17 36.69609 100.12587 37016 ft 506 kts 91°
2026-04-29 15:17 36.68826 100.21302 37019 ft 506 kts 92°
2026-04-29 15:18 36.68035 100.30007 37030 ft 506 kts 91°
2026-04-29 15:18 36.67250 100.38714 37034 ft 506 kts 91°
2026-04-29 15:19 36.66458 100.47412 37046 ft 505 kts 91°
2026-04-29 15:19 36.65655 100.56107 37050 ft 505 kts 91°
2026-04-29 15:20 36.64849 100.64788 37061 ft 505 kts 91°
2026-04-29 15:20 36.64175 100.71997 37073 ft 504 kts 91°
2026-04-29 15:21 36.63359 100.80669 37092 ft 504 kts 91°
2026-04-29 15:21 36.62535 100.89328 37100 ft 504 kts 91°
2026-04-29 15:22 36.61701 100.97976 37109 ft 503 kts 91°
2026-04-29 15:22 36.60941 101.06612 37116 ft 501 kts 90°
2026-04-29 15:23 36.60282 101.15234 37118 ft 501 kts 89°
2026-04-29 15:23 36.59612 101.23866 37125 ft 500 kts 90°
2026-04-29 15:24 36.58909 101.32479 37128 ft 500 kts 90°
2026-04-29 15:24 36.58195 101.41071 37130 ft 499 kts 90°
2026-04-29 15:25 36.57470 101.49650 37125 ft 499 kts 90°
2026-04-29 15:25 36.56736 101.58217 37117 ft 498 kts 90°
2026-04-29 15:26 36.56005 101.66716 37128 ft 497 kts 90°
2026-04-29 15:26 36.55276 101.75250 37126 ft 497 kts 89°
2026-04-29 15:27 36.54536 101.83803 37138 ft 496 kts 89°
2026-04-29 15:27 36.53790 101.92324 37144 ft 495 kts 90°
2026-04-29 15:28 36.53043 102.00817 37151 ft 494 kts 89°
2026-04-29 15:28 36.52218 102.09306 37162 ft 495 kts 91°
2026-04-29 15:29 36.51208 102.17774 37171 ft 496 kts 92°
2026-04-29 15:30 36.49143 102.34685 37183 ft 493 kts 92°
2026-04-29 15:30 36.48165 102.43111 37183 ft 493 kts 92°
2026-04-29 15:31 36.47185 102.51532 37186 ft 493 kts 92°
2026-04-29 15:31 36.46176 102.59969 37183 ft 493 kts 92°
2026-04-29 15:32 36.45162 102.68364 37174 ft 492 kts 92°
2026-04-29 15:32 36.44147 102.76794 37168 ft 493 kts 92°
2026-04-29 15:33 36.43118 102.85210 37166 ft 493 kts 92°
2026-04-29 15:33 36.41971 102.93612 37173 ft 495 kts 95°
2026-04-29 15:34 36.40654 103.02001 37192 ft 495 kts 95°
2026-04-29 15:34 36.39329 103.10379 37194 ft 494 kts 95°
2026-04-29 15:35 36.38049 103.18745 37195 ft 493 kts 95°
2026-04-29 15:35 36.36783 103.27115 37209 ft 493 kts 95°
2026-04-29 15:36 36.35516 103.35417 37225 ft 493 kts 95°
2026-04-29 15:36 36.34229 103.43757 37226 ft 493 kts 96°
2026-04-29 15:37 36.32927 103.52103 37231 ft 492 kts 96°
2026-04-29 15:37 36.31629 103.60432 37234 ft 492 kts 96°
2026-04-29 15:38 36.30327 103.68764 37230 ft 492 kts 96°
2026-04-29 15:38 36.29020 103.77082 37225 ft 492 kts 96°
2026-04-29 15:39 36.27698 103.85399 37212 ft 492 kts 97°
2026-04-29 15:39 36.26370 103.93713 37207 ft 492 kts 97°
2026-04-29 15:40 36.25043 104.02012 37211 ft 491 kts 97°
2026-04-29 15:40 36.23712 104.10316 37210 ft 491 kts 97°
2026-04-29 15:41 36.22380 104.18618 37218 ft 491 kts 97°
2026-04-29 15:41 36.21038 104.26912 37225 ft 491 kts 97°
2026-04-29 15:42 36.19273 104.35092 37226 ft 495 kts 110°
2026-04-29 15:42 36.15972 104.42590 37229 ft 497 kts 119°
2026-04-29 15:43 36.12456 104.49945 37231 ft 497 kts 119°
2026-04-29 15:43 36.08934 104.57308 37229 ft 497 kts 119°
2026-04-29 15:44 36.05414 104.64662 37224 ft 497 kts 119°
2026-04-29 15:44 36.01885 104.72003 37223 ft 497 kts 120°
2026-04-29 15:45 35.98353 104.79340 37221 ft 497 kts 120°
2026-04-29 15:45 35.94813 104.86666 37220 ft 497 kts 120°
2026-04-29 15:46 35.91266 104.93990 37223 ft 497 kts 120°
2026-04-29 15:46 35.87727 105.01254 37223 ft 497 kts 120°
2026-04-29 15:47 35.84167 105.08557 37226 ft 497 kts 120°
2026-04-29 15:47 35.80615 105.15873 37226 ft 497 kts 120°
2026-04-29 15:48 35.77062 105.23169 37229 ft 497 kts 120°
2026-04-29 15:48 35.73490 105.30458 37223 ft 497 kts 120°
2026-04-29 15:49 35.69912 105.37738 37229 ft 497 kts 120°
2026-04-29 15:49 35.66331 105.45025 37232 ft 498 kts 120°
2026-04-29 15:50 35.62751 105.52300 37231 ft 497 kts 120°
2026-04-29 15:50 35.59164 105.59568 37231 ft 497 kts 120°
2026-04-29 15:51 35.55568 105.66831 37224 ft 497 kts 121°
2026-04-29 15:51 35.52730 105.74509 37222 ft 493 kts 103°
2026-04-29 15:52 35.51402 105.82715 37207 ft 490 kts 96°
2026-04-29 15:52 35.50187 105.90886 37211 ft 490 kts 97°
2026-04-29 15:53 35.48947 105.99110 37217 ft 490 kts 97°
2026-04-29 15:53 35.47717 106.07340 37213 ft 490 kts 97°
2026-04-29 15:54 35.46482 106.15623 37219 ft 490 kts 97°
2026-04-29 15:54 35.45252 106.23801 37222 ft 490 kts 97°
2026-04-29 15:55 35.44018 106.32025 37225 ft 490 kts 97°
2026-04-29 15:55 35.42777 106.40253 37233 ft 491 kts 97°
2026-04-29 15:56 35.41523 106.48477 37229 ft 491 kts 97°
2026-04-29 15:56 35.40255 106.56698 37227 ft 491 kts 97°
2026-04-29 15:57 35.39012 106.64741 37229 ft 491 kts 97°
2026-04-29 15:57 35.37742 106.72975 37229 ft 491 kts 97°
2026-04-29 15:58 35.36469 106.81193 37232 ft 491 kts 97°
2026-04-29 15:58 35.35183 106.89403 37228 ft 491 kts 98°
2026-04-29 15:59 35.33889 106.97619 37225 ft 491 kts 98°
2026-04-29 15:59 35.32590 107.05831 37229 ft 491 kts 98°
2026-04-29 15:59 35.31940 107.09931 37126 ft 490 kts 98°
2026-04-29 16:00 35.31290 107.14020 36546 ft 489 kts 98°
2026-04-29 16:00 35.30637 107.18101 35927 ft 487 kts 98°
2026-04-29 16:00 35.29984 107.22155 35421 ft 483 kts 98°
2026-04-29 16:00 35.29337 107.26167 34934 ft 478 kts 97°
2026-04-29 16:01 35.28692 107.30140 34441 ft 473 kts 97°
2026-04-29 16:01 35.28061 107.34021 33923 ft 469 kts 97°
2026-04-29 16:01 35.27421 107.37960 33340 ft 464 kts 97°
2026-04-29 16:01 35.26795 107.41818 32768 ft 459 kts 97°
2026-04-29 16:02 35.26185 107.45576 32222 ft 455 kts 97°
2026-04-29 16:02 35.25564 107.49404 31684 ft 450 kts 97°
2026-04-29 16:02 35.24963 107.53096 31168 ft 446 kts 97°
2026-04-29 16:02 35.24364 107.56807 30643 ft 442 kts 97°
2026-04-29 16:03 35.23774 107.60483 30140 ft 438 kts 97°
2026-04-29 16:03 35.23189 107.64131 29564 ft 435 kts 97°
2026-04-29 16:03 35.22609 107.67740 29013 ft 431 kts 97°
2026-04-29 16:03 35.22030 107.71319 28456 ft 428 kts 98°
2026-04-29 16:04 35.21196 107.74808 27961 ft 428 kts 109°
2026-04-29 16:04 35.19881 107.78064 27451 ft 427 kts 120°
2026-04-29 16:04 35.18141 107.80980 26943 ft 424 kts 131°
2026-04-29 16:04 35.16151 107.83619 26429 ft 421 kts 133°
2026-04-29 16:05 35.14173 107.86230 25925 ft 417 kts 133°
2026-04-29 16:05 35.12215 107.88822 25423 ft 414 kts 133°
2026-04-29 16:05 35.10267 107.91396 24928 ft 410 kts 133°
2026-04-29 16:05 35.08339 107.93940 24441 ft 407 kts 133°
2026-04-29 16:06 35.06424 107.96466 23970 ft 403 kts 133°
2026-04-29 16:06 35.04531 107.98968 23469 ft 399 kts 133°
2026-04-29 16:06 35.02658 108.01444 22927 ft 395 kts 133°
2026-04-29 16:06 35.00828 108.03857 22422 ft 390 kts 133°
2026-04-29 16:07 34.98997 108.06263 21940 ft 385 kts 133°
2026-04-29 16:07 34.97770 108.07871 21608 ft 382 kts 133°
2026-04-29 16:07 34.95399 108.10984 20981 ft 375 kts 133°
2026-04-29 16:07 34.93637 108.13299 20516 ft 370 kts 133°
2026-04-29 16:08 34.91894 108.15587 20058 ft 366 kts 133°
2026-04-29 16:08 34.90173 108.17841 19615 ft 361 kts 133°
2026-04-29 16:08 34.88474 108.20067 19179 ft 356 kts 133°
2026-04-29 16:08 34.86795 108.22266 18734 ft 352 kts 133°
2026-04-29 16:09 34.85136 108.24437 18298 ft 348 kts 133°
2026-04-29 16:09 34.83494 108.26580 17797 ft 344 kts 133°
2026-04-29 16:09 34.81873 108.28692 17320 ft 339 kts 133°
2026-04-29 16:09 34.80808 108.30081 17006 ft 337 kts 133°
2026-04-29 16:10 34.79221 108.32153 16543 ft 333 kts 133°
2026-04-29 16:10 34.77655 108.34201 16090 ft 329 kts 133°
2026-04-29 16:10 34.76101 108.36229 15644 ft 325 kts 132°
2026-04-29 16:10 34.74564 108.38231 15192 ft 322 kts 132°
2026-04-29 16:11 34.73046 108.40204 14746 ft 318 kts 132°
2026-04-29 16:11 34.71539 108.42159 14325 ft 315 kts 132°
2026-04-29 16:11 34.70049 108.44088 13902 ft 311 kts 132°
2026-04-29 16:11 34.69933 108.44239 13866 ft 311 kts 132°
2026-04-29 16:12 34.68577 108.45949 13401 ft 308 kts 133°
2026-04-29 16:12 34.67112 108.47839 12917 ft 306 kts 132°
2026-04-29 16:12 34.65669 108.49726 12430 ft 304 kts 132°
2026-04-29 16:12 34.64233 108.51610 11940 ft 302 kts 132°
2026-04-29 16:13 34.62806 108.53473 11478 ft 300 kts 133°
2026-04-29 16:13 34.61445 108.55245 11029 ft 298 kts 133°
2026-04-29 16:13 34.60052 108.57053 10570 ft 297 kts 133°
2026-04-29 16:13 34.58651 108.58866 10293 ft 288 kts 133°
2026-04-29 16:14 34.57237 108.60551 10170 ft 275 kts 143°
2026-04-29 16:14 34.55634 108.61641 10040 ft 263 kts 161°
2026-04-29 16:14 34.53878 108.62117 9764 ft 257 kts 178°
2026-04-29 16:14 34.52115 108.61970 9416 ft 253 kts 194°
2026-04-29 16:15 34.50436 108.61375 9055 ft 251 kts 198°
2026-04-29 16:15 34.48771 108.60763 8727 ft 249 kts 197°
2026-04-29 16:15 34.47178 108.60072 8573 ft 239 kts 207°
2026-04-29 16:15 34.45807 108.58940 8328 ft 239 kts 223°
2026-04-29 16:16 34.44684 108.57462 8071 ft 238 kts 229°
2026-04-29 16:16 34.43588 108.55962 7827 ft 238 kts 228°
2026-04-29 16:16 34.42493 108.54476 7602 ft 236 kts 228°
2026-04-29 16:16 34.41400 108.52994 7272 ft 236 kts 227°
2026-04-29 16:17 34.40309 108.51512 6981 ft 235 kts 228°
2026-04-29 16:17 34.39228 108.50044 6673 ft 233 kts 227°
2026-04-29 16:17 34.38147 108.48581 6407 ft 231 kts 227°
2026-04-29 16:17 34.37073 108.47130 6057 ft 231 kts 227°
2026-04-29 16:18 34.35998 108.45678 5750 ft 231 kts 227°
2026-04-29 16:18 34.34882 108.44292 5412 ft 229 kts 216°
2026-04-29 16:18 34.33490 108.43448 5047 ft 228 kts 194°
2026-04-29 16:18 34.31914 108.43319 4909 ft 225 kts 172°
2026-04-29 16:19 34.30407 108.43767 4917 ft 227 kts 164°
2026-04-29 16:19 34.28918 108.44257 4919 ft 221 kts 163°
2026-04-29 16:19 34.27565 108.45134 4920 ft 224 kts 137°
2026-04-29 16:19 34.26717 108.46698 4924 ft 225 kts 109°
2026-04-29 16:20 34.26605 108.48576 4916 ft 227 kts 79°
2026-04-29 16:20 34.27280 108.50289 4923 ft 229 kts 52°
2026-04-29 16:20 34.28323 108.51729 4917 ft 223 kts 49°
2026-04-29 16:20 34.29327 108.53087 4914 ft 211 kts 49°
2026-04-29 16:21 34.30273 108.54381 4910 ft 201 kts 49°
2026-04-29 16:21 34.31193 108.55643 4912 ft 199 kts 49°
2026-04-29 16:21 34.32111 108.56902 4911 ft 199 kts 49°
2026-04-29 16:21 34.33027 108.58160 4849 ft 200 kts 50°
2026-04-29 16:22 34.33936 108.59408 4605 ft 195 kts 49°
2026-04-29 16:22 34.34816 108.60617 4361 ft 188 kts 49°
2026-04-29 16:22 34.35674 108.61798 4126 ft 186 kts 49°
2026-04-29 16:22 34.36512 108.62950 3893 ft 178 kts 50°
2026-04-29 16:23 34.37313 108.64051 3672 ft 170 kts 50°
2026-04-29 16:23 34.38054 108.65070 3460 ft 154 kts 50°
2026-04-29 16:23 34.38726 108.65995 3246 ft 140 kts 50°
2026-04-29 16:23 34.39360 108.66867 3078 ft 136 kts 49°
2026-04-29 16:24 34.39973 108.67713 2911 ft 133 kts 50°
2026-04-29 16:24 34.40581 108.68550 2736 ft 132 kts 50°
2026-04-29 16:24 34.41183 108.69379 2548 ft 130 kts 49°
2026-04-29 16:24 34.41782 108.70204 2370 ft 130 kts 49°
2026-04-29 16:25 34.42379 108.71031 2165 ft 130 kts 48°
2026-04-29 16:25 34.42973 108.71861 1984 ft 130 kts 48°
2026-04-29 16:25 34.43571 108.72683 1770 ft 129 kts 48°
2026-04-29 16:25 34.44162 108.73497 1584 ft 129 kts 48°
2026-04-29 16:26 34.44722 108.74263 1521 ft 105 kts 49°
2026-04-29 16:26 34.45088 108.74769 1521 ft 55 kts 49°
2026-04-29 16:26 34.45211 108.75016 1518 ft 31 kts 76°
2026-04-29 16:26 34.45237 108.75172 1521 ft 8 kts 78°
2026-04-29 16:27 34.45243 108.75206 1519 ft 4 kts 78°
2026-04-29 16:27 34.45250 108.75249 1521 ft 6 kts 78°
2026-04-29 16:27 34.45242 108.75306 1521 ft 8 kts 134°
2026-04-29 16:27 34.45192 108.75357 1521 ft 11 kts 139°
2026-04-29 16:28 34.45122 108.75431 1521 ft 15 kts 139°
2026-04-29 16:28 34.45038 108.75520 1521 ft 17 kts 138°
2026-04-29 16:28 34.44959 108.75605 1521 ft 14 kts 138°
2026-04-29 16:28 34.44882 108.75685 1521 ft 14 kts 140°
2026-04-29 16:29 34.44795 108.75773 1520 ft 15 kts 140°
2026-04-29 16:29 34.44732 108.75838 1521 ft 13 kts 139°
2026-04-29 16:29 34.44668 108.75897 1519 ft 9 kts 158°
2026-04-29 16:29 34.44616 108.75863 1521 ft 10 kts 231°
2026-04-29 16:30 34.44583 108.75808 1519 ft 7 kts 251°
2026-04-29 16:30 34.44610 108.75763 1521 ft 7 kts 323°
2026-04-29 16:30 34.44631 108.75741 1520 ft 0 kts 320°